Home   Weather   Raleigh   Past weeks

Flag for USA Past Weather in Raleigh, North Carolina, USA — Yesterday and Last 2 Weeks

Now
64 °F

Overcast.


Feels Like: 64 °F
Forecast: 47 / 63 °F
Wind: 9 mph from Southwest

Location: Raleigh-Durham International Airport

Current Time: Feb 25, 2018 at 8:50:25 pm

Latest Report: Feb 25, 2018 at 7:51 pm


Visibility: 10 mi

Pressure: 30.05 "Hg

Humidity: 78%

Dew Point: 57 °F

Location of RaleighLocation

Past Weather in Raleigh — Graph

°F

Raleigh Temperature Yesterday

Maximum temperature yesterday: 77 °F (at 3:51 pm)
Minimum temperature yesterday: 57 °F (at 12:51 am)
Average temperature yesterday: 66 °F

High & Low Weather Summary for the Past Weeks

 TemperatureHumidityPressure
High80 °F (Feb 16, 1:51 pm)100% (Feb 10, 6:20 pm)30.73 "Hg (Feb 10, 6:20 pm)
Low37 °F (Feb 14, 12:18 am)38% (Feb 18, 2:51 pm)29.76 "Hg (Feb 16, 1:51 pm)
Average58 °F82%30.28 "Hg
* Reported Feb 10 6:20 pm — Feb 25 6:51 pm, Raleigh. Weather by CustomWeather, © 2018

Note: Actual official high and low records may vary slightly from our data, if they occured in-between our weather recording intervals... More about our weather records

Advertising

Raleigh Weather History for the Previous 24 Hours

Scroll right to see more
 ConditionsComfort  
Time TempWeatherWind HumidityBarometerVisibility
6:51 pm
Sun, Feb 25
64 °FOvercast.13 mph78%30.07 "Hg10 mi
5:51 pm65 °FOvercast.9 mph73%30.04 "Hg10 mi
4:51 pm66 °FOvercast.7 mph68%30.04 "Hg10 mi
3:51 pm67 °FOvercast.12 mph63%30.05 "Hg10 mi
2:51 pm68 °FOvercast.5 mph61%30.04 "Hg10 mi
1:51 pm66 °FLight rain. More clouds than sun.10 mph73%30.04 "Hg10 mi
12:51 pm68 °FOvercast.13 mph63%30.07 "Hg9 mi
11:51 am71 °FBroken clouds.15 mph55%30.07 "Hg10 mi
10:51 am72 °FPartly sunny.13 mph64%30.07 "Hg10 mi
9:51 am72 °FScattered clouds.16 mph68%30.03 "Hg10 mi
8:51 am69 °FPartly sunny.20 mph79%30.03 "Hg10 mi
7:51 am64 °FScattered clouds.16 mph90%30.03 "Hg10 mi
6:51 am63 °FScattered clouds.13 mph93%30.02 "Hg10 mi
5:51 am63 °FPassing clouds.14 mph90%30.03 "Hg10 mi
4:51 am64 °FPassing clouds.13 mph84%30.02 "Hg10 mi
3:51 am63 °FPassing clouds.13 mph84%30.03 "Hg10 mi
2:51 am64 °FPassing clouds.12 mph81%30.04 "Hg10 mi
1:51 am65 °FPassing clouds.10 mph81%30.06 "Hg10 mi
12:51 am66 °FPassing clouds.14 mph81%30.06 "Hg10 mi
11:51 pm
Sat, Feb 24
67 °FPassing clouds.14 mph79%30.07 "Hg10 mi
10:51 pm68 °FPassing clouds.9 mph73%30.06 "Hg10 mi
9:51 pm69 °FPartly cloudy.9 mph68%30.06 "Hg10 mi
8:51 pm69 °FPartly cloudy.8 mph68%30.08 "Hg10 mi
Weather by CustomWeather, © 2018

See weather overview